| time (UTC) | temp F | wind direction | speed knots | gust knots | rain 1hr in | rain 24hr in | rain mn in | humidity % | barometer mb |
| 20260509134614 | 48 | 0 | 2.6 | 5.2 | 0.00 | 0.00 | 0.00 | 83 | 1026.5 |
| 20260509133111 | 48 | 150 | 2.6 | 6.1 | 0.00 | 0.00 | 0.00 | 83 | 1026.4 |
| 20260509131613 | 49 | 150 | 2.6 | 7.0 | 0.00 | 0.00 | 0.00 | 82 | 1026.4 |
| 20260509130111 | 49 | 150 | 2.6 | 6.1 | 0.00 | 0.00 | 0.00 | 83 | 1026.5 |
| 20260509124613 | 49 | 159 | 2.6 | 5.2 | 0.00 | 0.00 | 0.00 | 82 | 1026.5 |
| 20260509123111 | 49 | 173 | 2.6 | 5.2 | 0.00 | 0.00 | 0.00 | 82 | 1026.6 |
| 20260509121609 | 50 | 159 | 2.6 | 5.2 | 0.00 | 0.00 | 0.00 | 81 | 1026.6 |
| 20260509120112 | 50 | 144 | 2.6 | 5.2 | 0.00 | 0.00 | 0.00 | 82 | 1026.7 |
| 20260509114612 | 50 | 156 | 1.7 | 4.3 | 0.00 | 0.00 | 0.00 | 82 | 1026.7 |
| 20260509113111 | 50 | 135 | 0.9 | 2.6 | 0.00 | 0.00 | 0.00 | 81 | 1026.6 |
| 20260509111610 | 50 | 100 | 0.0 | 0.0 | 0.00 | 0.00 | 0.00 | 81 | 1026.5 |
| 20260509110111 | 50 | 98 | 0.0 | 0.0 | 0.00 | 0.00 | 0.00 | 81 | 1026.5 |
| 20260509104611 | 50 | 97 | 0.0 | 0.0 | 0.00 | 0.00 | 0.00 | 80 | 1026.5 |
| 20260509103111 | 51 | 97 | 0.0 | 0.0 | 0.00 | 0.00 | 0.00 | 79 | 1026.5 |
| 20260509101611 | 52 | 96 | 0.0 | 0.0 | 0.00 | 0.00 | 0.00 | 78 | 1026.2 |
| 20260509100120 | 52 | 0 | 0.0 | 1.7 | 0.00 | 0.00 | 0.00 | 77 | 1026.3 |
| 20260509094612 | 53 | 0 | 0.9 | 1.7 | 0.00 | 0.00 | 0.00 | 77 | 1025.9 |
| 20260509093112 | 54 | 0 | 0.0 | 1.7 | 0.00 | 0.00 | 0.00 | 75 | 1025.8 |
| 20260509091611 | 54 | 0 | 0.9 | 1.7 | 0.00 | 0.00 | 0.00 | 75 | 1025.7 |
| 20260509090109 | 55 | 96 | 0.0 | 0.0 | 0.00 | 0.00 | 0.00 | 73 | 1025.6 |
| 20260509084610 | 56 | 95 | 0.9 | 1.7 | 0.00 | 0.00 | 0.00 | 72 | 1025.4 |
| 20260509083110 | 57 | 95 | 0.0 | 1.7 | 0.00 | 0.00 | 0.00 | 71 | 1025.2 |
| 20260509081616 | 58 | 95 | 0.9 | 1.7 | 0.00 | 0.00 | 0.00 | 70 | 1025.1 |
| 20260509080111 | 59 | 95 | 0.9 | 1.7 | 0.00 | 0.00 | 0.00 | 68 | 1024.8 |
| 20260509074610 | 60 | 95 | 0.0 | 1.7 | 0.00 | 0.00 | 0.00 | 66 | 1024.8 |
| 20260509073109 | 61 | 95 | 0.9 | 3.5 | 0.00 | 0.00 | 0.00 | 65 | 1024.4 |
| 20260509071616 | 63 | 102 | 0.9 | 3.5 | 0.00 | 0.00 | 0.00 | 63 | 1024.4 |
| 20260509070045 | 64 | 0 | 0.9 | 5.2 | 0.00 | 0.00 | 0.00 | 61 | 1024.1 |
| 20260509064536 | 65 | 124 | 3.5 | 8.7 | 0.00 | 0.00 | 0.00 | 60 | 1023.8 |
| 20260509063034 | 66 | 126 | 4.3 | 8.7 | 0.00 | 0.00 | 0.00 | 58 | 1023.7 |
| 20260509061537 | 67 | 101 | 4.3 | 8.7 | 0.00 | 0.00 | 0.00 | 57 | 1023.5 |
| 20260509060035 | 68 | 107 | 4.3 | 11.3 | 0.00 | 0.00 | 0.00 | 55 | 1023.5 |
| 20260509054531 | 70 | 0 | 5.2 | 9.6 | 0.00 | 0.00 | 0.00 | 52 | 1023.2 |
| 20260509053029 | 73 | 63 | 0.0 | 2.6 | 0.00 | 0.00 | 0.00 | 43 | 1023.1 |
| 20260509051536 | 73 | 287 | 0.9 | 5.2 | 0.00 | 0.00 | 0.00 | 44 | 1022.9 |
| 20260509050017 | 72 | 213 | 0.9 | 3.5 | 0.00 | 0.00 | 0.00 | 45 | 1023.0 |
| 20260509044519 | 71 | 131 | 1.7 | 3.5 | 0.00 | 0.00 | 0.00 | 46 | 1023.0 |
| 20260509043019 | 70 | 106 | 0.9 | 2.6 | 0.00 | 0.00 | 0.00 | 49 | 1023.0 |
| 20260509041458 | 70 | 0 | 0.9 | 3.5 | 0.00 | 0.00 | 0.00 | 47 | 1022.9 |
| 20260509035933 | 70 | 0 | 1.7 | 5.2 | 0.00 | 0.00 | 0.00 | 47 | 1022.9 |
| 20260509034434 | 70 | 0 | 1.7 | 4.3 | 0.00 | 0.00 | 0.00 | 47 | 1023.1 |
| 20260509032927 | 71 | 0 | 1.7 | 7.8 | 0.00 | 0.00 | 0.00 | 46 | 1023.1 |
| 20260509031422 | 71 | 0 | 1.7 | 7.0 | 0.00 | 0.00 | 0.00 | 46 | 1023.3 |
| 20260509025923 | 70 | 193 | 1.7 | 6.1 | 0.00 | 0.00 | 0.00 | 47 | 1023.3 |
| 20260509024419 | 70 | 250 | 1.7 | 5.2 | 0.00 | 0.00 | 0.00 | 49 | 1023.5 |
| 20260509022919 | 70 | 215 | 2.6 | 5.2 | 0.00 | 0.00 | 0.00 | 46 | 1023.8 |
| 20260509021412 | 69 | 207 | 3.5 | 7.0 | 0.00 | 0.00 | 0.00 | 47 | 1024.0 |
| 20260509015910 | 69 | 115 | 1.7 | 7.8 | 0.00 | 0.00 | 0.00 | 47 | 1024.3 |
| 20260509014411 | 68 | 234 | 1.7 | 6.1 | 0.00 | 0.00 | 0.00 | 50 | 1024.4 |
| 20260509012909 | 68 | 172 | 3.5 | 7.0 | 0.00 | 0.00 | 0.00 | 51 | 1024.4 |
| 20260509011418 | 68 | 126 | 2.6 | 7.0 | 0.00 | 0.00 | 0.00 | 50 | 1024.8 |
| 20260509005917 | 68 | 219 | 2.6 | 5.2 | 0.00 | 0.00 | 0.00 | 52 | 1025.1 |
| 20260509004411 | 67 | 200 | 1.7 | 5.2 | 0.00 | 0.00 | 0.00 | 54 | 1025.2 |
| 20260509002910 | 66 | 146 | 1.7 | 7.8 | 0.00 | 0.00 | 0.00 | 55 | 1025.1 |
| 20260509001410 | 65 | 178 | 2.6 | 7.0 | 0.00 | 0.00 | 0.00 | 60 | 1025.1 |
| 20260508235917 | 64 | 196 | 3.5 | 8.7 | 0.00 | 0.00 | 0.00 | 61 | 1025.2 |
| 20260508234409 | 62 | 168 | 3.5 | 7.8 | 0.00 | 0.00 | 0.00 | 61 | 1025.2 |
| 20260508232915 | 61 | 155 | 3.5 | 6.1 | 0.00 | 0.00 | 0.00 | 65 | 1025.3 |
| 20260508231424 | 58 | 175 | 2.6 | 5.2 | 0.00 | 0.00 | 0.00 | 69 | 1025.3 |
| 20260508225917 | 55 | 0 | 2.6 | 5.2 | 0.00 | 0.00 | 0.00 | 74 | 1025.4 |
| 20260508224411 | 53 | 169 | 2.6 | 5.2 | 0.00 | 0.00 | 0.00 | 77 | 1025.3 |
| 20260508222917 | 52 | 0 | 1.7 | 7.8 | 0.00 | 0.00 | 0.00 | 79 | 1025.2 |
| 20260508221411 | 50 | 154 | 1.7 | 4.3 | 0.00 | 0.00 | 0.00 | 81 | 1025.0 |
| 20260508215911 | 49 | 0 | 1.7 | 5.2 | 0.00 | 0.00 | 0.00 | 82 | 1024.8 |
| 20260508214411 | 48 | 0 | 1.7 | 2.6 | 0.00 | 0.00 | 0.00 | 83 | 1024.8 |
| 20260508212911 | 47 | 0 | 1.7 | 3.5 | 0.00 | 0.00 | 0.00 | 83 | 1024.5 |
| 20260508211416 | 47 | 0 | 1.7 | 2.6 | 0.00 | 0.00 | 0.00 | 83 | 1024.5 |
| 20260508205917 | 47 | 0 | 0.9 | 3.5 | 0.00 | 0.00 | 0.00 | 81 | 1024.3 |
| 20260508204411 | 47 | 0 | 0.9 | 2.6 | 0.00 | 0.00 | 0.00 | 81 | 1024.0 |
| 20260508202916 | 48 | 0 | 1.7 | 3.5 | 0.00 | 0.00 | 0.00 | 81 | 1023.8 |
| 20260508201416 | 48 | 0 | 1.7 | 3.5 | 0.00 | 0.00 | 0.00 | 81 | 1023.5 |
| 20260508195901 | 48 | 0 | 0.9 | 2.6 | 0.00 | 0.00 | 0.00 | 80 | 1023.3 |
| 20260508194354 | 48 | 0 | 2.6 | 4.3 | 0.00 | 0.00 | 0.00 | 80 | 1023.2 |
| 20260508192842 | 49 | 0 | 1.7 | 3.5 | 0.00 | 0.00 | 0.00 | 80 | 1022.8 |
| 20260508191344 | 49 | 0 | 0.9 | 3.5 | 0.00 | 0.00 | 0.00 | 79 | 1022.8 |
| 20260508185841 | 49 | 0 | 2.6 | 5.2 | 0.00 | 0.00 | 0.00 | 79 | 1022.5 |
| 20260508184333 | 50 | 160 | 1.7 | 5.2 | 0.00 | 0.00 | 0.00 | 78 | 1022.5 |
| 20260508182825 | 50 | 154 | 1.7 | 4.3 | 0.00 | 0.00 | 0.00 | 78 | 1022.3 |
| 20260508181319 | 50 | 157 | 0.9 | 4.3 | 0.00 | 0.00 | 0.00 | 78 | 1022.2 |
| 20260508175814 | 50 | 154 | 1.7 | 2.6 | 0.00 | 0.00 | 0.00 | 78 | 1022.3 |
| 20260508174312 | 50 | 153 | 1.7 | 4.3 | 0.00 | 0.00 | 0.00 | 78 | 1022.2 |
| 20260508172813 | 50 | 0 | 1.7 | 4.3 | 0.00 | 0.00 | 0.00 | 79 | 1022.2 |
| 20260508171310 | 49 | 0 | 1.7 | 3.5 | 0.00 | 0.00 | 0.00 | 79 | 1022.1 |
| 20260508165809 | 48 | 0 | 0.0 | 1.7 | 0.00 | 0.00 | 0.00 | 79 | 1022.0 |
| 20260508164316 | 48 | 0 | 0.9 | 2.6 | 0.00 | 0.00 | 0.00 | 77 | 1022.1 |
| 20260508162811 | 49 | 0 | 0.9 | 3.5 | 0.00 | 0.00 | 0.00 | 76 | 1022.4 |
| 20260508161316 | 50 | 139 | 0.9 | 2.6 | 0.00 | 0.00 | 0.00 | 76 | 1022.1 |
| 20260508155741 | 51 | 139 | 1.7 | 3.5 | 0.00 | 0.00 | 0.00 | 76 | 1022.2 |
| 20260508154214 | 51 | 138 | 1.7 | 3.5 | 0.00 | 0.00 | 0.00 | 76 | 1022.0 |
| 20260508152715 | 50 | 126 | 2.6 | 4.3 | 0.00 | 0.00 | 0.00 | 77 | 1022.2 |
| 20260508151216 | 49 | 132 | 2.6 | 3.5 | 0.00 | 0.00 | 0.00 | 79 | 1022.2 |
| 20260508145711 | 48 | 0 | 0.9 | 3.5 | 0.00 | 0.00 | 0.00 | 78 | 1022.1 |
| 20260508144150 | 49 | 0 | 0.9 | 3.5 | 0.00 | 0.00 | 0.00 | 77 | 1022.2 |
| 20260508142652 | 49 | 0 | 0.0 | 0.9 | 0.00 | 0.00 | 0.00 | 76 | 1022.1 |
| 20260508141111 | 50 | 141 | 0.0 | 2.6 | 0.00 | 0.00 | 0.00 | 75 | 1022.1 |
| 20260508135559 | 50 | 0 | 0.9 | 3.5 | 0.00 | 0.00 | 0.00 | 74 | 1022.1 |